FW9465 Weather Reports


time (UTC)temp
C
wind
direction
speed
KPH
gust
KPH
rain 1hr
cm
rain 24hr
cm
rain mn
cm
humidity
%
barometer
mb
20260506201732 15 14 12.9 17.7 0.00 0.10 0.10 71 1013.9
20260506195731 15 9 9.7 16.1 0.00 0.10 0.10 70 1014.4
20260506194748 15 17 6.4 12.9 0.00 0.10 0.10 71 1014.5
20260506193834 15 346 9.7 14.5 0.00 0.10 0.10 72 1014.6
20260506192932 14 8 11.3 14.5 0.00 0.10 0.10 73 1014.8
20260506191948 14 346 4.8 14.5 0.00 0.10 0.10 73 1014.9
20260506191031 13 21 4.8 8.0 0.00 0.10 0.10 74 1014.9
20260506185033 13 22 6.4 11.3 0.00 0.10 0.10 76 1015.2
20260506184033 13 12 1.6 6.4 0.00 0.10 0.10 76 1015.4
20260506183033 13 345 4.8 11.3 0.00 0.10 0.10 76 1015.0
20260506182048 13 350 8.0 12.9 0.00 0.10 0.10 77 1014.4
20260506181131 12 3 19.3 30.6 0.00 0.10 0.10 78 1013.7
20260506180132 12 336 16.1 24.1 0.00 0.10 0.10 80 1013.7
20260506174133 12 348 20.9 27.4 0.00 0.10 0.10 81 1014.1
20260506173131 12 342 6.4 16.1 0.03 0.10 0.10 83 1014.6
20260506172230 11 354 6.4 12.9 0.03 0.10 0.10 83 1014.6
20260506171233 11 5 8.0 14.5 0.03 0.10 0.10 84 1014.5
20260506170232 11 8 14.5 22.5 0.03 0.10 0.10 85 1014.5
20260506165331 11 10 16.1 22.5 0.03 0.10 0.10 84 1014.1
20260506164248 11 5 14.5 22.5 0.03 0.10 0.10 84 1014.4
20260506162332 11 359 9.7 17.7 0.00 0.08 0.08 86 1014.6
20260506161334 11 358 16.1 22.5 0.00 0.08 0.08 86 1014.6
20260506160431 11 24 11.3 17.7 0.00 0.08 0.08 89 1014.2
20260506155449 11 353 9.7 17.7 0.00 0.08 0.08 90 1014.4
20260506154431 11 1 17.7 22.5 0.05 0.08 0.08 91 1013.2
20260506153431 10 351 11.3 19.3 0.08 0.08 0.08 91 1013.8
20260506151432 10 342 9.7 17.7 0.08 0.08 0.08 90 1014.8
20260506145433 10 7 12.9 17.7 0.08 0.08 0.08 87 1014.8
20260506144431 10 320 9.7 14.5 0.03 0.03 0.03 85 1016.1
20260506143432 10 335 4.8 11.3 0.00 0.00 0.00 84 1015.8
20260506142431 10 340 8.0 14.5 0.00 0.00 0.00 84 1015.9
20260506140432 11 348 11.3 20.9 0.00 0.00 0.00 83 1013.9
20260506135431 11 339 12.9 20.9 0.00 0.00 0.00 83 1014.5
20260506134433 11 313 16.1 22.5 0.00 0.00 0.00 83 1014.9
20260506133432 11 13 19.3 27.4 0.00 0.00 0.00 82 1014.0
20260506131449 11 359 12.9 16.1 0.00 0.00 0.00 81 1013.6
20260506130531 11 1 11.3 19.3 0.00 0.00 0.00 81 1013.7
20260506125533 11 12 16.1 25.7 0.00 0.00 0.00 80 1013.0
20260506124535 11 353 14.5 22.5 0.00 0.00 0.00 78 1012.8
20260506123531 11 342 17.7 27.4 0.00 0.00 0.00 78 1012.8
20260506121631 12 345 11.3 19.3 0.00 0.00 0.00 76 1012.9
20260506120632 12 352 14.5 19.3 0.00 0.00 0.00 76 1012.4
20260506115631 12 359 17.7 24.1 0.00 0.00 0.00 77 1012.4
20260506113633 12 355 14.5 19.3 0.00 0.00 0.00 76 1012.2
20260506112731 12 354 14.5 22.5 0.00 0.00 0.00 75 1012.2
20260506110831 13 356 11.3 20.9 0.00 0.00 0.00 75 1011.9
20260506105830 13 358 11.3 14.5 0.00 0.00 0.00 75 1011.5
20260506104832 13 346 11.3 19.3 0.00 0.00 0.00 75 1011.6
20260506103830 13 341 11.3 17.7 0.00 0.00 0.00 75 1011.3
20260506102832 13 352 8.0 16.1 0.00 0.00 0.00 77 1011.2
20260506101831 13 328 17.7 20.9 0.00 0.00 0.00 77 1011.2
20260506095931 13 4 9.7 14.5 0.00 0.00 0.00 75 1010.7
20260506094031 13 347 8.0 11.3 0.00 0.00 0.00 76 1010.5
20260506093034 13 342 9.7 14.5 0.00 0.00 0.00 77 1010.6
20260506092030 13 344 8.0 14.5 0.00 0.00 0.00 77 1010.4
20260506091033 13 348 14.5 17.7 0.00 0.00 0.00 78 1010.3
20260506090034 13 340 9.7 12.9 0.00 0.00 0.00 77 1010.5
20260506085047 13 334 11.3 16.1 0.00 0.00 0.00 78 1010.4
20260506084129 13 2 9.7 12.9 0.00 0.00 0.00 78 1010.3
20260506083132 13 357 14.5 19.3 0.00 0.00 0.00 79 1010.2
20260506082147 14 351 14.5 19.3 0.00 0.00 0.00 78 1010.0
20260506081231 14 341 12.9 19.3 0.00 0.00 0.00 79 1010.0
20260506080231 14 345 12.9 17.7 0.00 0.00 0.00 78 1010.0
20260506072247 15 7 8.0 11.3 0.00 0.00 0.00 80 1009.8
20260506071232 15 19 16.1 22.5 0.00 0.00 0.00 80 1009.6
20260506070330 15 28 11.3 14.5 0.00 0.00 0.00 80 1009.6
20260506062431 15 12 16.1 20.9 0.00 0.00 0.00 79 1009.7
20260506061432 15 12 11.3 16.1 0.00 0.00 0.00 78 1009.6
20260506060431 15 11 17.7 22.5 0.00 0.00 0.00 78 1009.5
20260506050432 16 2 12.9 19.3 0.00 0.00 0.00 76 1009.8
20260506044536 17 15 11.3 16.1 0.00 0.00 0.00 76 1009.7
20260506043534 17 357 17.7 24.1 0.00 0.00 0.00 74 1009.2
20260506042534 17 3 9.7 16.1 0.00 0.00 0.00 74 1009.2
20260506041536 18 17 16.1 24.1 0.00 0.00 0.00 74 1009.6
20260506040533 18 12 14.5 19.3 0.00 0.00 0.00 72 1009.6
20260506034535 18 332 16.1 22.5 0.00 0.00 0.00 73 1009.2
20260506033634 18 355 16.1 22.5 0.00 0.00 0.00 71 1008.7
20260506032634 18 347 14.5 22.5 0.00 0.00 0.00 71 1008.7
20260506030650 19 3 16.1 22.5 0.00 0.00 0.00 71 1008.2
20260506025635 19 25 16.1 22.5 0.00 0.00 0.00 70 1007.9
20260506023733 19 10 19.3 27.4 0.00 0.00 0.00 69 1007.8
20260506022733 20 20 14.5 19.3 0.00 0.00 0.00 70 1007.5
20260506021735 20 348 16.1 20.9 0.00 0.00 0.00 70 1007.4
20260506020832 20 330 12.9 19.3 0.00 0.00 0.00 70 1007.3
20260506015833 20 1 14.5 25.7 0.00 0.00 0.00 69 1007.0
20260506014834 21 348 16.1 25.7 0.00 0.00 0.00 68 1006.8
20260506012835 21 331 12.9 19.3 0.00 0.00 0.00 68 1006.2
20260506003949 22 343 14.5 22.5 0.00 0.00 0.00 64 1005.5
20260506003048 23 5 14.5 17.7 0.00 0.00 0.00 62 1005.4
20260506002133 23 341 11.3 14.5 0.00 0.00 0.00 62 1005.2
20260506002034 23 354 11.3 16.1 0.00 0.00 0.00 62 1005.3
20260506001033 23 3 14.5 17.7 0.00 0.00 0.00 61 1005.0
20260506000133 23 332 12.9 20.9 0.00 0.00 0.00 61 1005.0
20260505235135 24 342 17.7 20.9 0.00 0.00 0.00 60 1005.0
20260505234134 25 356 14.5 24.1 0.00 0.00 0.00 60 1004.8
20260505232134 26 340 17.7 29.0 0.00 0.00 0.00 59 1004.2
20260505231135 26 323 17.7 27.4 0.00 0.00 0.00 60 1004.1
20260505230151 27 344 17.7 25.7 0.00 0.00 0.00 56 1004.3
20260505225233 28 344 12.9 20.9 0.00 0.00 0.00 53 1004.1
20260505223234 28 351 9.7 16.1 0.00 0.00 0.00 48 1003.7
20260505222235 29 339 14.5 22.5 0.00 0.00 0.00 45 1003.7
20260505221333 30 350 16.1 20.9 0.00 0.00 0.00 44 1003.6
20260505220333 32 333 16.1 22.5 0.00 0.00 0.00 43 1003.6
20260505215333 32 282 4.8 6.4 0.00 0.00 0.00 44 1003.3
20260505214334 32 282 0.0 3.2 0.00 0.00 0.00 45 1003.5
20260505213333 32 292 6.4 9.7 0.00 0.00 0.00 43 1003.6
20260505212347 31 294 8.0 12.9 0.00 0.00 0.00 44 1003.5
20260505211434 31 269 12.9 20.9 0.00 0.00 0.00 43 1003.5
20260505210532 31 282 4.8 9.7 0.00 0.00 0.00 43 1003.7
20260505205534 32 256 14.5 17.7 0.00 0.00 0.00 43 1003.9
20260505204633 31 281 6.4 11.3 0.00 0.00 0.00 43 1004.0
20260505203634 31 255 14.5 22.5 0.00 0.00 0.00 42 1004.2
20260505202633 31 260 8.0 14.5 0.00 0.00 0.00 43 1004.1